[[{"header":{"parameterUnit":"m.s-1","parameterCategory":1,"la1":30.2991,"la2":30.254,"lo1":-89.0895,"lo2":-89.0444,"dy":0.0017,"dx":0.0017,"nx":28,"ny":28,"refTime":"2024-04-02T09:00:00:Z","depth":0,"parameterNumber":2,"parameterNumberName":"U-component_of_WINDS"},"data":[0,0,0,0,0,0,0,0,0,0,0,0,0,0,0,0,0,0,0,0,0,0,0,0,0,0,0,0,0,0,0,0,0,0,0,0,0,0,0,0,0,0,0,0,0,0,0,0,0,0,0,0,0,0,0,0,0,0,-2.0836,-2.0836,0,-2.0865,-2.0865,-2.0865,-2.0847,-2.0847,-2.0846,-2.0845,-2.0875,-2.0877,-2.0878,0,0,0,0,0,0,0,0,0,0,0,0,0,-2.0768,-2.0769,-2.0836,-2.0836,-2.0837,-2.0865,-2.0865,-2.0865,-2.0848,-2.0847,-2.0846,-2.0845,-2.0875,-2.0876,-2.0878,0,0,0,0,0,0,0,0,0,0,0,0,0,-2.0797,-2.077,-2.0836,-2.0831,-2.0831,-2.0865,-2.0865,-2.0865,-2.0848,-2.0847,-2.0845,-2.0844,-2.0874,-2.0876,-2.0879,-2.0919,0,0,-2.0886,-2.0887,0,0,0,0,0,0,0,0,-2.0795,-2.08,-2.0831,-2.0832,-2.0831,-2.0851,-2.0852,-2.0883,-2.0848,-2.0841,-2.0845,-2.0843,-2.0868,-2.0871,-2.0879,-2.092,-2.0921,-2.0886,-2.0887,-2.0888,-2.0889,0,0,0,0,0,0,0,-2.0793,-2.0798,-2.0847,-2.0832,-2.0832,-2.0828,-2.0831,-2.0858,-2.0862,-2.0842,-2.0841,-2.0844,-2.0868,-2.0877,-2.088,-2.0922,-2.0886,-2.0888,-2.089,-2.089,-2.0998,-2.1,0,0,0,0,0,0,-2.0792,-2.0797,-2.0846,-2.0848,-2.081,-2.0831,-2.0834,-2.0846,-2.0861,-2.0862,-2.0845,-2.0843,-2.0873,-2.0877,-2.0881,-2.0929,-2.0888,-2.0891,-2.0892,-2.0997,-2.0999,-2.1,0,0,0,0,0,0,-2.079,-2.0796,-2.0845,-2.0822,-2.0828,-2.0833,-2.0847,-2.0847,-2.0856,-2.0864,-2.0865,-2.0854,-2.0873,-2.0877,-2.0909,-2.093,-2.0892,-2.0894,-2.0995,-2.0997,-2.0999,-2.1025,0,0,0,0,0,0,-2.0788,-2.0796,-2.081,-2.0823,-2.0829,-2.0873,-2.0848,-2.0849,-2.086,-2.0858,-2.0872,-2.0873,-2.0872,-2.0906,-2.0912,-2.0932,-2.0896,-2.0993,-2.0996,-2.0999,-2.1023,-2.1028,-2.1033,0,0,0,0,0,-2.0786,-2.0816,-2.0811,-2.0817,-2.0848,-2.0874,-2.0878,-2.0876,-2.0862,-2.0877,-2.0882,-2.0872,-2.0927,-2.0909,-2.0916,-2.0937,-2.0992,-2.0995,-2.0998,-2.102,-2.1027,-2.1033,0,0,0,0,0,0,-2.0806,-2.0818,-2.0812,-2.0847,-2.086,-2.0871,-2.089,-2.0883,-2.09,-2.0897,-2.0894,-2.0898,-2.0931,-2.0938,-2.0918,-2.0977,-2.0957,-2.0962,-2.0972,-2.0978,-2.0983,-2.098,-2.0898,0,0,0,0,0,-2.0815,-2.0835,-2.0844,-2.0874,-2.0881,-2.0885,-2.0896,-2.0894,-2.0907,-2.0912,-2.0919,-2.0933,-2.0953,-2.0966,-2.0985,-2.1024,-2.1027,-2.1042,-2.1047,-2.1051,-2.1055,-2.1077,-2.1084,-2.1011,-2.1011,-2.1011,0,0,-2.0833,-2.0842,-2.0854,-2.0879,-2.0888,-2.091,-2.0889,-2.0912,-2.0928,-2.0915,-2.0946,-2.0952,-2.0967,-2.1003,-2.102,-2.101,-2.1076,-2.1055,-2.1059,-2.106,-2.1081,-2.1088,-2.1094,-2.1013,-2.1012,-2.1012,0,0,-2.0876,-2.0885,-2.0911,-2.0921,-2.0936,-2.0938,-2.0945,-2.0958,-2.0961,-2.0992,-2.0983,-2.1003,-2.1037,-2.1049,-2.1059,-2.1109,-2.1101,-2.1115,-2.1141,-2.1163,-2.1168,-2.1173,-2.1191,-2.1198,-2.1119,-2.1119,-2.1119,0,-2.0896,-2.0927,-2.0925,-2.095,-2.0961,-2.0951,-2.0978,-2.0989,-2.1009,-2.1017,-2.1006,-2.105,-2.106,-2.1098,-2.1111,-2.1119,-2.1127,-2.1113,-2.1168,-2.1173,-2.1177,-2.1194,-2.1201,-2.1121,-2.1121,-2.1121,-2.112,0,-2.0952,-2.0974,-2.0993,-2.1013,-2.1027,-2.1053,-2.1056,-2.107,-2.1068,-2.1072,-2.1104,-2.1115,-2.1137,-2.1146,-2.1143,-2.1185,-2.1178,-2.1168,-2.1147,-2.1186,-2.1202,-2.1208,-2.1123,-2.1123,-2.1122,-2.1122,0,0,-2.1006,-2.1026,-2.1033,-2.1043,-2.1059,-2.1077,-2.1103,-2.1124,-2.1136,-2.1152,-2.1174,-2.1204,-2.1195,-2.1206,-2.1205,-2.1224,-2.1264,-2.1211,-2.1212,-2.122,-2.1311,-2.1318,-2.1326,-2.1259,-2.126,-2.1261,-2.1309,0,-2.105,-2.1095,-2.1095,-2.1136,-2.1157,-2.1149,-2.1172,-2.1185,-2.119,-2.1209,-2.1215,-2.1237,-2.1223,-2.123,-2.1248,-2.1255,-2.1282,-2.1252,-2.128,-2.1281,-2.1275,-2.1334,-2.1342,-2.1386,-2.1316,-2.1317,-2.1318,0,-2.1107,-2.1124,-2.1167,-2.1182,-2.1191,-2.1211,-2.1231,-2.1249,-2.1265,-2.1267,-2.1281,-2.1278,-2.1305,-2.1285,-2.1323,-2.1303,-2.1315,-2.132,-2.1322,-2.1324,-2.1301,-2.1337,-2.1401,-2.1407,-2.1327,-2.1327,-2.1326,0,-2.1142,-2.1176,-2.1207,-2.1215,-2.1233,-2.1248,-2.1256,-2.127,-2.1283,-2.1301,-2.131,-2.1331,-2.1342,-2.1359,-2.1362,-2.1347,-2.1401,-2.1381,-2.1404,-2.1404,-2.1414,-2.1413,-2.148,-2.1423,-2.1423,-2.1423,-2.1423,0,-2.119,-2.1217,-2.1223,-2.1241,-2.1272,-2.1273,-2.1303,-2.131,-2.1323,-2.1344,-2.1339,-2.1358,-2.1361,-2.1382,-2.1385,-2.1416,-2.1422,-2.1425,-2.1425,-2.1425,-2.1424,-2.1431,-2.1428,-2.1425,-2.1424,-2.1424,-2.1424,0,-2.1234,-2.1239,-2.1272,-2.1286,-2.1291,-2.1313,-2.1326,-2.1344,-2.1349,-2.1376,-2.1382,-2.1391,-2.1415,-2.142,-2.1448,-2.145,-2.1488,-2.1485,-2.1482,-2.1482,-2.1504,-2.1502,-2.1578,-2.1588,-2.1525,-2.1526,-2.1526,0,-2.1264,-2.1284,-2.1302,-2.1315,-2.1324,-2.1346,-2.1359,-2.1362,-2.1376,-2.1397,-2.1413,-2.1437,-2.1456,-2.1495,-2.1504,-2.1527,-2.1524,-2.1549,-2.1527,-2.1527,-2.1524,-2.1522,-2.1525,-2.1553,-2.1554,-2.1554,-2.1555,0,-2.1317,-2.1319,-2.1338,-2.1359,-2.1375,-2.1392,-2.1408,-2.1419,-2.1424,-2.1441,-2.1466,-2.148,-2.151,-2.1534,-2.1557,-2.1566,-2.1562,-2.1562,-2.1568,-2.1567,-2.1565,-2.1566,-2.1493,-2.1559,-2.1559,-2.1559,-2.1558,-2.1558,-2.1354,-2.1372,-2.1388,-2.141,-2.1422,-2.1438,-2.1456,-2.1464,-2.1485,-2.1509,-2.151,-2.1537,-2.1553,-2.1583,-2.1594,-2.1616,-2.1608,-2.1618,-2.162,-2.1622,-2.1624,-2.1562,-2.1621,-2.162,-2.162,-2.162,-2.162,0,-2.1407,-2.1416,-2.1437,-2.1459,-2.1477,-2.1472,-2.149,-2.1505,-2.1529,-2.1545,-2.1564,-2.1593,-2.1617,-2.1629,-2.1652,-2.1668,-2.1666,-2.1674,-2.1672,-2.1675,-2.163,-2.1622,-2.1675,-2.1675,-2.1675,-2.1675,-2.1675,-2.1675,-2.1436,-2.1466,-2.147,-2.1508,-2.1517,-2.1544,-2.1554,-2.1569,-2.1582,-2.1614,-2.1634,-2.1642,-2.1656,-2.1681,-2.1703,-2.1706,-2.1715,-2.1723,-2.1725,-2.1683,-2.1678,-2.1672,-2.1664,-2.1726,-2.1726,-2.1768,-2.1769,-2.1769]},{"header":{"parameterUnit":"m.s-1","parameterCategory":1,"la1":30.2991,"la2":30.254,"lo1":-89.0895,"lo2":-89.0444,"dy":0.0017,"dx":0.0017,"nx":28,"ny":28,"refTime":"2024-04-02T09:00:00:Z","depth":0,"parameterNumber":3,"parameterNumberName":"V-component_of_WINDS"},"data":[0,0,0,0,0,0,0,0,0,0,0,0,0,0,0,0,0,0,0,0,0,0,0,0,0,0,0,0,0,0,0,0,0,0,0,0,0,0,0,0,0,0,0,0,0,0,0,0,0,0,0,0,0,0,0,0,0,0,5.4413,5.4415,0,5.4531,5.4532,5.4533,5.4518,5.4516,5.4515,5.4513,5.463,5.4635,5.4639,0,0,0,0,0,0,0,0,0,0,0,0,0,5.4175,5.4179,5.4413,5.4415,5.4416,5.453,5.4532,5.4534,5.4519,5.4516,5.4514,5.4512,5.4628,5.4634,5.464,0,0,0,0,0,0,0,0,0,0,0,0,0,5.4284,5.4181,5.4413,5.4423,5.4425,5.453,5.4532,5.4534,5.4519,5.4516,5.4513,5.4511,5.4626,5.4633,5.4641,5.4743,0,0,5.4663,5.4666,0,0,0,0,0,0,0,0,5.4278,5.4293,5.442,5.4422,5.4425,5.4507,5.4491,5.4604,5.452,5.4483,5.4513,5.4509,5.4591,5.4601,5.4629,5.4749,5.4754,5.4664,5.4668,5.4671,5.4673,0,0,0,0,0,0,0,5.427,5.4287,5.446,5.4422,5.4425,5.4421,5.4433,5.4512,5.4552,5.4486,5.4485,5.45,5.4592,5.4622,5.4632,5.4755,5.4664,5.467,5.4675,5.4677,5.4968,5.4971,0,0,0,0,0,0,5.426,5.4281,5.4456,5.4463,5.4343,5.4427,5.4441,5.4483,5.4551,5.4558,5.4502,5.4498,5.4611,5.4623,5.4636,5.4763,5.4671,5.4678,5.4682,5.4964,5.4968,5.4972,0,0,0,0,0,0,5.4255,5.4276,5.4451,5.4372,5.4394,5.4434,5.4482,5.4487,5.4518,5.4563,5.4569,5.4526,5.4609,5.4626,5.4718,5.4766,5.4682,5.4688,5.4961,5.4966,5.497,5.5015,0,0,0,0,0,0,5.4249,5.4274,5.4314,5.4373,5.4398,5.4531,5.4485,5.4492,5.4531,5.4527,5.4587,5.4594,5.4608,5.4707,5.4725,5.4775,5.4694,5.4956,5.4963,5.4969,5.501,5.5021,5.5031,0,0,0,0,0,5.424,5.4321,5.4316,5.4337,5.4449,5.4534,5.4548,5.4564,5.4535,5.4575,5.4604,5.4592,5.4758,5.4716,5.4737,5.479,5.4953,5.4961,5.4968,5.5005,5.5019,5.5031,0,0,0,0,0,0,5.4264,5.4328,5.4324,5.4426,5.4475,5.4531,5.4582,5.4578,5.4635,5.4629,5.4645,5.4659,5.4753,5.478,5.4732,5.4894,5.4852,5.4863,5.4873,5.4886,5.4897,5.4889,5.47,0,0,0,0,0,5.4282,5.4346,5.4398,5.4484,5.4509,5.4541,5.4579,5.4587,5.4638,5.4658,5.4694,5.4743,5.4806,5.4848,5.4908,5.5013,5.5027,5.506,5.5071,5.5079,5.509,5.515,5.5166,5.4996,5.4996,5.4996,0,0,5.4318,5.4361,5.44,5.449,5.4528,5.4595,5.4559,5.463,5.468,5.4668,5.4758,5.4787,5.4842,5.4942,5.4988,5.4968,5.514,5.5089,5.5095,5.5101,5.5159,5.5175,5.5189,5.5001,5.5001,5.5,0,0,5.4418,5.4457,5.4533,5.4574,5.4634,5.4655,5.4674,5.4732,5.4751,5.4841,5.4835,5.4894,5.5002,5.5043,5.5078,5.5197,5.5189,5.5216,5.5273,5.5331,5.5344,5.5356,5.5401,5.5416,5.5226,5.5227,5.5227,0,5.4455,5.4556,5.4573,5.4646,5.4686,5.4681,5.4759,5.4797,5.4873,5.4901,5.4878,5.5016,5.5052,5.5163,5.5193,5.522,5.5243,5.521,5.5341,5.5353,5.5365,5.5407,5.5424,5.523,5.5229,5.5229,5.5229,0,5.46,5.467,5.4725,5.4801,5.4847,5.4922,5.495,5.4995,5.4999,5.5024,5.5117,5.5162,5.5233,5.5259,5.5263,5.5371,5.5357,5.5338,5.5296,5.5384,5.5424,5.544,5.5234,5.5233,5.5232,5.5231,0,0,5.4718,5.4804,5.4824,5.486,5.4927,5.4981,5.5056,5.5127,5.5166,5.5219,5.5284,5.5377,5.536,5.54,5.5409,5.546,5.5554,5.5434,5.5436,5.5456,5.5678,5.5693,5.5712,5.5549,5.5552,5.5554,5.5674,0,5.4826,5.4961,5.4979,5.5099,5.5165,5.5162,5.5228,5.5276,5.5301,5.5361,5.5388,5.5455,5.5426,5.5451,5.5501,5.5532,5.5599,5.5523,5.5609,5.5612,5.5597,5.5733,5.5749,5.5859,5.5689,5.5692,5.5694,0,5.497,5.503,5.5157,5.5217,5.5246,5.5305,5.5373,5.5429,5.5484,5.5499,5.5545,5.5549,5.5627,5.5582,5.5691,5.5639,5.5676,5.5696,5.5701,5.571,5.5659,5.5747,5.5894,5.5912,5.5719,5.5717,5.5715,0,5.5046,5.5158,5.5249,5.5279,5.5351,5.5394,5.5425,5.5478,5.552,5.5579,5.5607,5.5674,5.571,5.5762,5.5784,5.5748,5.5892,5.5848,5.5908,5.5907,5.5938,5.5936,5.6095,5.596,5.5959,5.5959,5.5959,0,5.5166,5.5244,5.5285,5.534,5.5428,5.5448,5.5535,5.5565,5.5612,5.5674,5.5675,5.5733,5.5757,5.5819,5.5836,5.5925,5.5941,5.5956,5.596,5.5957,5.5955,5.5981,5.5975,5.5964,5.5963,5.5962,5.5961,0,5.5266,5.5296,5.5395,5.5456,5.5474,5.5536,5.5588,5.5643,5.5668,5.5747,5.5766,5.5806,5.5879,5.5906,5.5994,5.6006,5.611,5.6106,5.6092,5.6093,5.6152,5.6146,5.6334,5.636,5.6206,5.6207,5.6208,0,5.5341,5.5401,5.547,5.5513,5.5547,5.5614,5.5659,5.5681,5.5727,5.5796,5.5842,5.5916,5.5976,5.6093,5.613,5.6198,5.6197,5.6258,5.6207,5.6203,5.62,5.6197,5.6204,5.6268,5.6269,5.6271,5.6272,0,5.5472,5.5484,5.5548,5.5619,5.5672,5.5728,5.5782,5.5816,5.5847,5.5899,5.5975,5.6022,5.6114,5.6187,5.6257,5.629,5.6287,5.6288,5.6305,5.6303,5.6293,5.6302,5.6119,5.6283,5.6282,5.6281,5.6281,5.628,5.5563,5.5617,5.5675,5.5747,5.5791,5.5842,5.5898,5.5931,5.5995,5.6073,5.6082,5.6164,5.622,5.6315,5.6351,5.6415,5.6399,5.6423,5.643,5.6436,5.6442,5.6282,5.6428,5.6427,5.6427,5.6427,5.6427,0,5.5695,5.5733,5.5799,5.5877,5.5934,5.5927,5.5987,5.6035,5.6108,5.6161,5.6221,5.6309,5.6381,5.6424,5.6496,5.654,5.654,5.6558,5.6556,5.6564,5.6452,5.643,5.6557,5.6557,5.6557,5.6557,5.6557,5.6557,5.5771,5.5864,5.5884,5.5999,5.6036,5.6118,5.6153,5.6201,5.6244,5.6343,5.6404,5.6432,5.6481,5.6557,5.6623,5.6634,5.6661,5.6681,5.669,5.6585,5.6571,5.6559,5.6539,5.6686,5.6686,5.6797,5.6798,5.6799]}]]